KC3RWX Weather Reports


time (UTC)temp
F
wind
direction
speed
knots
gust
knots
rain 1hr
in
rain 24hr
in
rain mn
in
humidity
%
barometer
mb
20260504214522 71 21 11.3 16.5 0.00 0.00 0.00 38 1008.8
20260504213018 71 41 8.7 15.6 0.00 0.00 0.00 38 1008.9
20260504211526 0 0.0 0.0 0.00 0.00 0.00 1008.9
20260504210018 71 87 7.8 13.0 0.00 0.00 0.00 38 1009.0
20260504204523 71 0.0 0.0 0.00 0.00 0.00 39 1009.0
20260504203019 70 68 11.3 14.8 0.00 0.00 0.00 37 1009.2
20260504201521 71 7.8 11.3 0.00 0.00 0.00 1009.5
20260504200020 70 48 7.8 20.0 0.00 0.00 0.00 37 1009.6
20260504194520 70 108 5.2 15.6 0.00 0.00 0.00 41 1009.8
20260504193021 69 96 5.2 17.4 0.00 0.00 0.00 41 1010.1
20260504191523 69 70 7.8 11.3 0.00 0.00 0.00 41 1010.1
20260504190023 69 60 7.8 18.2 0.00 0.00 0.00 39 1010.3
20260504184522 68 57 7.8 19.1 0.00 0.00 0.00 42 1010.5
20260504183009 69 27 6.1 15.6 0.00 0.00 0.00 42 1010.7
20260504181530 69 80 15.6 22.6 0.00 0.00 0.00 43 1011.0
20260504180019 68 115 9.6 15.6 0.00 0.00 0.00 43 1011.2
20260504174522 67 50 10.4 16.5 0.00 0.00 0.00 39 1011.3
20260504173022 67 31 11.3 21.7 0.00 0.00 0.00 40 1011.4
20260504171524 66 94 8.7 15.6 0.00 0.00 0.00 43 1011.6
20260504081534 36 131 0.9 2.6 0.00 0.00 0.00 81 1014.4
20260504044507 37 139 1.7 1.7 0.00 0.00 0.00 80 1014.5
20260504043026 37 134 1.7 2.6 0.00 0.00 0.00 80 1014.5
20260504041526 38 138 0.9 2.6 0.00 0.00 0.00 78 1014.4
20260504040021 38 138 0.9 1.7 0.00 0.00 0.00 78 1014.4
20260504034532 38 146 0.9 1.7 0.00 0.00 0.00 76 1014.3
20260504033014 39 120 1.7 2.6 0.00 0.00 0.00 76 1014.1
20260504031531 39 140 1.7 2.6 0.00 0.00 0.00 76 1014.2
20260504030012 39 141 0.9 0.0 0.00 0.00 0.00 76 1014.1
20260504024541 0 0.0 0.0 0.00 0.00 0.00 1014.1
20260504023031 0 0.0 0.0 0.00 0.00 0.00 1014.1
20260504021530 0 0.0 0.0 0.00 0.00 0.00 1014.2
20260504020028 0 0.0 0.0 0.00 0.00 0.00 1014.2
20260504014528 0 0.0 0.0 0.00 0.00 0.00 1014.2
20260504013028 0 0.0 0.0 0.00 0.00 0.00 1014.1
20260504011528 0 0.0 0.0 0.00 0.00 0.00 1014.0
20260504010030 0 0.0 0.0 0.00 0.00 0.00 1014.0
20260504004540 0 0.0 0.0 0.00 0.00 0.00 1013.8
20260504003026 51 82 2.6 4.3 0.00 0.00 0.00 48 1013.7
20260504001522 51 103 0.9 1.7 0.00 0.00 0.00 47 1013.3
20260504000026 52 82 1.7 4.3 0.00 0.00 0.00 46 1013.2
20260503234529 53 90 2.6 6.1 0.00 0.00 0.00 44 1013.2
20260503233015 54 77 2.6 7.0 0.00 0.00 0.00 42 1013.1
20260503231528 55 96 7.0 11.3 0.00 0.00 0.00 40 1013.0
20260503230027 56 89 8.7 16.5 0.00 0.00 0.00 38 1012.9
20260503224526 56 82 5.2 10.4 0.00 0.00 0.00 41 1012.9
20260503223028 57 88 8.7 15.6 0.00 0.00 0.00 38 1012.9
20260503221529 57 81 7.8 14.8 0.00 0.00 0.00 39 1012.9
20260503220020 57 70 8.7 13.9 0.00 0.00 0.00 38 1012.9